Location: Del Amo
(33.8464°N, 118.2104°W)
Time: 17:59:55
(UTC+00:00)

Vanguard 2 Rocket - Pass Details

Date: 18 September 2024
Orbit: 553 x 3298 km, 32.9° (Epoch: 11 October)

Event Time Altitude Azimuth Distance (km) Brightness Sun altitude
Rises 05:37:51 0° 191° (S) 3,218 - -43.3°
Reaches altitude 10° 05:41:05 10° 166° (SSE) 2,612 - -43.8°
Maximum altitude 05:44:35 15° 132° (SE) 2,623 - -44.3°
Drops below altitude 10° 05:49:02 10° 100° (E) 3,513 - -45.0°
Sets 05:54:38 0° 81° (E) 5,139 - -45.8°
